Flag for U.S.A. Weather past 2 weeks in Miami, Florida, U.S.A.

Now
75 °F

Scattered clouds.


Feels Like: 75 °F
Forecast: 73 / 79 °F
Wind: 9 mph from East

Location: Miami International Airport

Current Time: Mar 1, 2015 at 8:28:31 AM

Latest Report: Mar 1, 2015 at 7:53 AM


Visibility: 10 mi

Pressure: 30.30 "Hg

Humidity: 82%

Dew point: 69 °F

Location of MiamiLocation

Historic Weather in Miami — Graph

°F

Miami temperature yesterday

Maximum temperature yesterday: 79 °F (at 8:53 AM)
Minimum temperature yesterday: 70 °F (at 12:53 AM)
Average temperature yesterday: 75 °F

Past Weeks' High & Low Weather Summary

 TemperatureHumidityPressure
High86 °F (Feb 26, 1:53 PM)94% (Feb 25, 2:53 AM)30.36 "Hg (Feb 25, 2:53 AM)
Low42 °F (Feb 20, 3:53 AM)21% (Feb 19, 3:53 PM)29.82 "Hg (Feb 26, 2:53 AM)
Average69 °F67%30.12 "Hg
* Reported Feb 14 6:53 AM — Mar 1 6:53 AM, Miami, Weather by CustomWeather, © 2015

Note: Actual official high and low records may vary slightly from our data, if they occured in-between our weather recording intervals... More about our weather records

Advertising

Miami weather history for previous 24 hours

 ConditionsComfort  
Time TempWeatherWind HumidityBarometerVisibility
6:53 AM
Sun, Mar 1
74 °FBroken clouds.9 mph82%30.28 "Hg10 mi
5:53 AM74 °FPassing clouds.9 mph79%30.26 "Hg10 mi
4:53 AM74 °FPassing clouds.10 mph79%30.25 "Hg10 mi
3:53 AM74 °FPassing clouds.13 mph79%30.24 "Hg10 mi
2:53 AM74 °FPassing clouds.13 mph82%30.24 "Hg10 mi
1:53 AM75 °FPassing clouds.10 mph79%30.26 "Hg10 mi
12:53 AM75 °FPassing clouds.13 mph85%30.27 "Hg10 mi
11:53 PM
Sat, Feb 28
75 °FPassing clouds.12 mph82%30.29 "Hg10 mi
10:53 PM75 °FPassing clouds.9 mph85%30.29 "Hg10 mi
9:53 PM76 °FOvercast.12 mph82%30.29 "Hg10 mi
8:53 PM75 °FOvercast.9 mph85%30.27 "Hg10 mi
7:53 PM76 °FOvercast.10 mph85%30.25 "Hg10 mi
6:53 PM76 °FOvercast.8 mph85%30.23 "Hg10 mi
5:53 PM76 °FMostly cloudy.7 mph88%30.22 "Hg10 mi
4:53 PM74 °FPartly sunny.8 mph85%30.21 "Hg10 mi
3:53 PM74 °FPartly sunny.8 mph85%30.21 "Hg10 mi
2:53 PM73 °FBroken clouds.12 mph88%30.19 "Hg10 mi
1:53 PM71 °FLight rain. More clouds than sun.17 mph78%30.22 "Hg7 mi
12:53 PM70 °FRain. Fog.7 mph93%30.25 "Hg3 mi
11:53 AM72 °FMostly cloudy.13 mph87%30.26 "Hg10 mi
11:00 AM79 °FMostly cloudy.7 mph74%30.27 "Hg10 mi
9:53 AM79 °FCloudy.15 mph74%30.26 "Hg10 mi
8:53 AM79 °FBroken clouds.15 mph74%30.24 "Hg10 mi
Weather by CustomWeather, © 2015

See weather overviewHow to use our weather pages